Location: Moena
(46.3667°N, 11.6500°E)
Time: 10:22:42
(UTC+00:00)

GP-B - Pass Details

Date: 17 June 2021
Orbit: 631 x 635 km, 89.8° (Epoch: 28 July)

Event Time Altitude Azimuth Distance (km) Brightness Sun altitude
Rises 23:50:52 0° 355° (N) 2,944 8.0 -19.7°
Reaches altitude 10° 23:53:10 10° 349° (N) 2,031 6.7 -19.7°
Maximum altitude 23:57:25 44° 278° (W) 879 3.8 -19.6°
Enters shadow 23:58:40 35° 236° (SW) 1,031 3.8 -19.5°
